Location: Ferintosh
(52.7647°N, 112.9692°W)
Time: 23:22:27
(UTC+00:00)

S-56A Canister/Altair - Pass Details

Date: 23 May 2024
Orbit: 637 x 2489 km, 38.9° (Epoch: 19 June)

Event Time Altitude Azimuth Distance (km) Brightness Sun altitude
Rises 16:31:56 0° 257° (WSW) 5,332 11.5 43.5°
Reaches altitude 10° 16:36:20 10° 249° (WSW) 4,022 11.0 44.1°
Maximum altitude 16:44:35 30° 194° (SSW) 2,182 10.4 45.2°
Drops below altitude 10° 16:50:32 10° 136° (SE) 2,845 11.4 45.9°
Sets 16:53:06 0° 124° (SE) 3,583 11.7 46.3°
